TITAN 3C TRANSTAGE R/B, 3292

Orbit data source: Space-Track

TITAN 3C TRANSTAGE R/B, 3292 is space debris in GEO originally from a launch on Thu, 13 Jun 1968 UTC launched from the Air Force Eastern Test Range (AFETR). Debris objects in space refer to the collection of defunct objects orbiting the Earth. Examples of debris include non-operational satellites, rocket bodies, and fragments generated from explosions, collisions, or faulty payload assembly.

Loading next visibility...
Identifier
3292, 1968-050J
Orbit
GEO
Last TLE update
16 hours ago
Origin
Manufacturer
Martin Marietta
Mission
Spacecraft
Bus & Motor
TRANSTAGE, Unknown motor
Mass
~1,950 kg wet, ~1,950 kg dry
Launch date (UTC)
1968-06-13 (57 years ago)
Launch vehicle
Unknown
Launch site
Air Force Eastern Test Range (AFETR)
Object type
Payload
Rocket body
Debris
Shape & HBR
Cyl + 2 Nozzle, 4.6 m
Radar Cross Section
14.974 m², Large (>1 m²)

Expand to show TLE details & history

TLE from 16 hours ago
0 TITAN 3C TRANSTAGE R/B
1 03292U 68050J   25181.61812858 -.00000210  00000-0  00000-0 0  9995
2 03292   6.8849  56.0219 0174303 358.0906 341.1318  1.05595074 42783
Epoch: 2025-06-30T14:50Z
TLE epoch observation values (Epoch: 2025-06-30T14:50:06.309Z)
Latitude
-2.5143°
Longitude
-106.71923°
Altitude
33,687.736 km
Speed
3.18 km/s
True Right ascension
02h 18m 55s
True Declination
-2° 30' 42"
Sunlit
Object was in daylight at epoch
Visualization orbit readout
Latitude
-5.69093°
Longitude
149.86192°
Altitude
34,733.791 km
Speed
3.099 km/s
Apparent Right ascension
19h 30m 40s
Apparent Declination
-12° 42' 48"
Sunlit
Object is in daylight
Visualization observer readout
Local Sidereal Time
18:45:04
Azimuth
166.153° S
Elevation
36.313°
Doppler factor
1
Orbital elements
Apogee altitude
35,068.467 km
Perigee altitude
33,648.366 km
Semi-major axis
40,736.554 km
Eccentricity
0.01743
Inclination
6.8849°
RAAN
56.0219°
Arg. of periapsis
358.0906°
True anomaly
Unknown
Mean anomaly
341.1318°
Eccentric anomaly
Unknown
Mean motion
0.26398 °/min
Orbital period
1,363.75 mins
BSTAR
0
Loading historical data...
3292 neighbors
Loading maneuver chart data...
Loading SW <> Apogee altitude chart data...
Loading historical data...
Loading historical data...
Loading historical data...
Loading historical data...
Loading historical data...
Loading historical data...
Loading historical data...

TITAN 3C TRANSTAGE R/B Visibility forecast

Observer location: undefined°, undefined°

Span
Click to sort rows by Start time (UTC) header in descending order
Start Az.
Max El. time (UTC)
Max El. Az.
Max El.
End time (UTC)
End Az.
1440 mins2025-07-01 07:07:10.039Z166.158° S2025-07-01 19:27:10.039Z141.221° SSE34.834°2025-07-02 07:07:10.039Z143.273° SSE
|